Weather in Bolshoy Kuyash

Russia / Chelyabinsk Oblast     55°50′10″N   61°05′47″E
temp.,
°C
wind,
m/s
gust,
m/s
humid.,
%
clouds,
%
prec.,
mm/h
press.,
hPa
HPBL,
m
14 may, fri
fri1423:00+19n00495 0.0 102511
02:00+17w11525 0.0 102611
05:00+16wsw11605 0.0 102611
08:00+21ssw23471 0.0 1026224
11:00+27ssw34310 0.0 10261418
14:00+29sw342783 0.0 10242871
17:00+28sw442779 0.1 10231919
20:00+24w223926 0.0 102331
15 may, sat
sat1523:00+19wsw33585 1.1 102438
02:00+17wnw366181 0.0 102490
05:00+15w35635 0.1 102473
08:00+21w364799 0.0 1024258
11:00+27w45295 0.0 10221457
14:00+30w582320 0.0 10212843
17:00+29wnw682773 0.0 10212311
20:00+24w483970 0.0 1020201
16 may, sun
sun1623:00+19w34545 0.0 102158
02:00+17wsw33615 0.0 102137
05:00+16wsw336394 0.0 102237
08:00+23w47465 0.0 1021291
11:00+28w46279 0.0 10201418
14:00+31w57215 0.0 10193249
17:00+30wnw572224 0.0 10183252
20:00+24wsw494269 0.2 1019194
17 may, mon
mon1723:00+20w36507 0.3 101877
02:00+18w35540 0.0 101878
05:00+17wsw34590 0.0 101959
08:00+23w48442 0.0 1019378
11:00+28w682756 0.0 10182193
14:00+29w7922100 0.0 10172881
17:00+29wnw692226 0.0 10163262
20:00+25w51037100 0.0 1016306
18 may, tue
tue1823:00+18wsw37483 0.0 1016125
02:00+17wsw366724 0.1 1016119
05:00+17w3974100 0.1 1016194
08:00+20wnw4859100 0.0 1016385
11:00+25nw573871 0.0 10161951
14:00+27nw573191 0.0 10143128
17:00+22n594748 0.1 1015448
20:00+20ne485766 0.0 1015333